[[{"header":{"parameterUnit":"m.s-1","parameterCategory":1,"la1":30.2991,"la2":30.254,"lo1":-89.0895,"lo2":-89.0444,"dy":0.0017,"dx":0.0017,"nx":28,"ny":28,"refTime":"2025-02-03T03:00:00:Z","depth":0,"parameterNumber":2,"parameterNumberName":"U-component_of_WINDS"},"data":[0,0,0,0,0,0,0,0,0,0,0,0,0,0,0,0,0,0,0,0,0,0,0,0,0,0,0,0,0,0,0,0,0,0,0,0,0,0,0,0,0,0,0,0,0,0,0,0,0,0,0,0,0,0,0,0,0,0,-0.1241,-0.1241,0,-0.1226,-0.1226,-0.1226,-0.1209,-0.1209,-0.1208,-0.1208,-0.1192,-0.1192,-0.1192,0,0,0,0,0,0,0,0,0,0,0,0,0,-0.1257,-0.1257,-0.1241,-0.1241,-0.1241,-0.1226,-0.1226,-0.1226,-0.1209,-0.1208,-0.1208,-0.1208,-0.1192,-0.1192,-0.1192,0,0,0,0,0,0,0,0,0,0,0,0,0,-0.1247,-0.1257,-0.1241,-0.1231,-0.123,-0.1226,-0.1226,-0.1226,-0.1209,-0.1208,-0.1208,-0.1208,-0.1192,-0.1192,-0.1192,-0.1197,0,0,-0.1191,-0.1191,0,0,0,0,0,0,0,0,-0.1248,-0.1246,-0.1232,-0.1231,-0.123,-0.1219,-0.1226,-0.1216,-0.1209,-0.1217,-0.1208,-0.1208,-0.1201,-0.12,-0.1198,-0.1197,-0.1196,-0.1191,-0.1191,-0.1191,-0.1191,0,0,0,0,0,0,0,-0.1248,-0.1247,-0.1235,-0.1232,-0.1231,-0.1227,-0.1225,-0.1224,-0.1211,-0.1216,-0.1215,-0.1213,-0.1201,-0.1199,-0.1198,-0.1196,-0.1191,-0.1191,-0.119,-0.119,-0.12,-0.12,0,0,0,0,0,0,-0.1251,-0.1248,-0.1236,-0.1235,-0.1238,-0.1227,-0.1225,-0.1223,-0.1211,-0.1209,-0.1214,-0.1212,-0.1199,-0.1198,-0.1197,-0.1204,-0.1191,-0.119,-0.119,-0.1199,-0.12,-0.12,0,0,0,0,0,0,-0.1251,-0.125,-0.1236,-0.1241,-0.1239,-0.1227,-0.1225,-0.1223,-0.1221,-0.1209,-0.1207,-0.1214,-0.1199,-0.1198,-0.1198,-0.1203,-0.119,-0.119,-0.1199,-0.12,-0.12,-0.1217,0,0,0,0,0,0,-0.1251,-0.125,-0.1251,-0.1241,-0.1239,-0.1237,-0.1225,-0.1223,-0.122,-0.1219,-0.1209,-0.1207,-0.1199,-0.1198,-0.1198,-0.1203,-0.119,-0.1198,-0.1199,-0.12,-0.1216,-0.1219,-0.122,0,0,0,0,0,-0.1252,-0.1256,-0.1252,-0.125,-0.124,-0.1237,-0.1236,-0.1226,-0.1221,-0.1223,-0.1216,-0.1207,-0.1203,-0.1199,-0.1197,-0.1203,-0.1198,-0.1199,-0.12,-0.1215,-0.1218,-0.122,0,0,0,0,0,0,-0.1267,-0.1255,-0.1249,-0.125,-0.1245,-0.1234,-0.1236,-0.1229,-0.1225,-0.1224,-0.1212,-0.121,-0.1212,-0.1207,-0.1203,-0.1208,-0.1199,-0.12,-0.1211,-0.1214,-0.1216,-0.1217,-0.1189,0,0,0,0,0,-0.1271,-0.1269,-0.1258,-0.126,-0.1258,-0.1248,-0.1246,-0.1239,-0.1233,-0.1231,-0.1224,-0.1219,-0.1216,-0.1215,-0.1212,-0.1216,-0.1214,-0.1219,-0.1221,-0.1223,-0.1223,-0.1227,-0.1229,-0.1203,-0.1203,-0.1203,0,0,-0.1278,-0.1271,-0.1271,-0.1263,-0.1258,-0.1258,-0.1246,-0.1245,-0.1245,-0.1231,-0.1231,-0.1226,-0.1219,-0.1222,-0.1222,-0.1218,-0.123,-0.1224,-0.1225,-0.1225,-0.1228,-0.123,-0.1233,-0.1204,-0.1204,-0.1204,0,0,-0.1291,-0.1285,-0.1287,-0.1282,-0.1275,-0.1269,-0.1269,-0.126,-0.1256,-0.1256,-0.1247,-0.1246,-0.1242,-0.1238,-0.1235,-0.1249,-0.1241,-0.1248,-0.1259,-0.1262,-0.1264,-0.1266,-0.1272,-0.1274,-0.1249,-0.1249,-0.1249,0,-0.1301,-0.1299,-0.1288,-0.1289,-0.1287,-0.1275,-0.1277,-0.1273,-0.1266,-0.1265,-0.1259,-0.1255,-0.1249,-0.1252,-0.1255,-0.1253,-0.1254,-0.1249,-0.1265,-0.1267,-0.1268,-0.1274,-0.1276,-0.125,-0.125,-0.125,-0.125,0,-0.1312,-0.1311,-0.1313,-0.1307,-0.1305,-0.1306,-0.1297,-0.1296,-0.129,-0.1284,-0.1285,-0.1278,-0.1275,-0.1275,-0.1268,-0.1277,-0.1274,-0.1267,-0.1258,-0.1272,-0.1277,-0.1279,-0.1251,-0.1251,-0.1251,-0.125,0,0,-0.1333,-0.1322,-0.1323,-0.1321,-0.1313,-0.1312,-0.1314,-0.131,-0.1311,-0.1306,-0.1308,-0.1305,-0.1299,-0.1296,-0.129,-0.1292,-0.1305,-0.1285,-0.1285,-0.129,-0.1316,-0.1322,-0.1324,-0.13,-0.1301,-0.1301,-0.1317,0,-0.1345,-0.1346,-0.1338,-0.1342,-0.1342,-0.1331,-0.1333,-0.1329,-0.1324,-0.1323,-0.1317,-0.1316,-0.1308,-0.1307,-0.1309,-0.1303,-0.131,-0.1302,-0.1302,-0.1303,-0.1305,-0.1327,-0.1332,-0.1348,-0.1319,-0.1319,-0.1319,0,-0.1358,-0.1356,-0.136,-0.1354,-0.1353,-0.1355,-0.1352,-0.1351,-0.1347,-0.1343,-0.1341,-0.1334,-0.1335,-0.1327,-0.1329,-0.1324,-0.1324,-0.1321,-0.1322,-0.1322,-0.1312,-0.1328,-0.1352,-0.1355,-0.1322,-0.1322,-0.1321,0,-0.1375,-0.1372,-0.1375,-0.1373,-0.1365,-0.1367,-0.1364,-0.1359,-0.1358,-0.1356,-0.1355,-0.1353,-0.1352,-0.1351,-0.1344,-0.1338,-0.1348,-0.1338,-0.1346,-0.1346,-0.1349,-0.1349,-0.1374,-0.1347,-0.1347,-0.1347,-0.1347,0,-0.1389,-0.1393,-0.1382,-0.1384,-0.1388,-0.1379,-0.1383,-0.1379,-0.1375,-0.1376,-0.1367,-0.1368,-0.1358,-0.1359,-0.1353,-0.1357,-0.1357,-0.1354,-0.1353,-0.1356,-0.1356,-0.1356,-0.1355,-0.1348,-0.1348,-0.1348,-0.1348,0,-0.1408,-0.1401,-0.1403,-0.1397,-0.1395,-0.1398,-0.1393,-0.1394,-0.1389,-0.1391,-0.1391,-0.1383,-0.1384,-0.1377,-0.1375,-0.1372,-0.1379,-0.1375,-0.138,-0.1379,-0.1388,-0.1388,-0.1414,-0.1418,-0.1388,-0.1389,-0.1389,0,-0.1418,-0.1421,-0.1414,-0.1415,-0.1412,-0.1413,-0.1412,-0.1404,-0.1404,-0.14,-0.1403,-0.1403,-0.1402,-0.1404,-0.1398,-0.1398,-0.1394,-0.1404,-0.1394,-0.1397,-0.1396,-0.1396,-0.1397,-0.1406,-0.1406,-0.1406,-0.1407,0,-0.1437,-0.1434,-0.1433,-0.1433,-0.1432,-0.1431,-0.1429,-0.143,-0.1421,-0.1422,-0.1422,-0.1422,-0.1422,-0.1422,-0.1421,-0.1418,-0.1412,-0.141,-0.1412,-0.1415,-0.1418,-0.1418,-0.1387,-0.1409,-0.1409,-0.1409,-0.1409,-0.1409,-0.1452,-0.1455,-0.1451,-0.1452,-0.145,-0.1449,-0.145,-0.1446,-0.1447,-0.1446,-0.1441,-0.1443,-0.144,-0.1438,-0.1436,-0.1438,-0.1434,-0.1436,-0.1437,-0.1438,-0.144,-0.1418,-0.1438,-0.1438,-0.1437,-0.1437,-0.1437,0,-0.1472,-0.1469,-0.147,-0.1468,-0.1469,-0.1463,-0.1461,-0.1462,-0.1464,-0.1462,-0.1462,-0.1464,-0.1465,-0.146,-0.146,-0.1463,-0.146,-0.1463,-0.1463,-0.1463,-0.1443,-0.1442,-0.1466,-0.1466,-0.1466,-0.1466,-0.1466,-0.1466,-0.1482,-0.1486,-0.1483,-0.1487,-0.1484,-0.1487,-0.1486,-0.1486,-0.1484,-0.1487,-0.1488,-0.1485,-0.1482,-0.1482,-0.1483,-0.1482,-0.1483,-0.1488,-0.1485,-0.1467,-0.1464,-0.1462,-0.1461,-0.1488,-0.1488,-0.1505,-0.1505,-0.1506]},{"header":{"parameterUnit":"m.s-1","parameterCategory":1,"la1":30.2991,"la2":30.254,"lo1":-89.0895,"lo2":-89.0444,"dy":0.0017,"dx":0.0017,"nx":28,"ny":28,"refTime":"2025-02-03T03:00:00:Z","depth":0,"parameterNumber":3,"parameterNumberName":"V-component_of_WINDS"},"data":[0,0,0,0,0,0,0,0,0,0,0,0,0,0,0,0,0,0,0,0,0,0,0,0,0,0,0,0,0,0,0,0,0,0,0,0,0,0,0,0,0,0,0,0,0,0,0,0,0,0,0,0,0,0,0,0,0,0,1.3127,1.3126,0,1.3073,1.3072,1.3072,1.3039,1.3039,1.3039,1.3039,1.2981,1.298,1.2979,0,0,0,0,0,0,0,0,0,0,0,0,0,1.3202,1.3201,1.3127,1.3126,1.3126,1.3073,1.3072,1.3071,1.304,1.3039,1.3039,1.3039,1.2982,1.298,1.2978,0,0,0,0,0,0,0,0,0,0,0,0,0,1.3161,1.3201,1.3127,1.3103,1.3101,1.3073,1.3072,1.3071,1.304,1.3039,1.3039,1.3039,1.2982,1.298,1.2978,1.2969,0,0,1.2972,1.2971,0,0,0,0,0,0,0,0,1.3163,1.3158,1.3108,1.3105,1.3102,1.3063,1.3077,1.3037,1.304,1.3063,1.3039,1.3039,1.3008,1.3004,1.2994,1.2966,1.2964,1.2972,1.297,1.2969,1.2969,0,0,0,0,0,0,0,1.3166,1.316,1.3105,1.3107,1.3104,1.3095,1.3089,1.307,1.3037,1.3061,1.3058,1.3052,1.3007,1.2996,1.2993,1.2963,1.2972,1.297,1.2968,1.2968,1.2927,1.2927,0,0,0,0,0,0,1.3173,1.3163,1.3107,1.3104,1.3133,1.3094,1.3087,1.3076,1.3037,1.3031,1.3053,1.3051,1.3,1.2995,1.2991,1.2978,1.2969,1.2967,1.2966,1.2926,1.2927,1.2927,0,0,0,0,0,0,1.3175,1.3168,1.3109,1.3133,1.3125,1.3093,1.308,1.3075,1.3064,1.3031,1.3025,1.3048,1.3,1.2994,1.2975,1.2976,1.2966,1.2964,1.2926,1.2927,1.2927,1.2954,0,0,0,0,0,0,1.3177,1.3169,1.3165,1.3133,1.3124,1.3095,1.308,1.3074,1.3061,1.3058,1.3025,1.302,1.2999,1.2979,1.2973,1.2973,1.2963,1.2926,1.2926,1.2927,1.2953,1.2955,1.2957,0,0,0,0,0,1.318,1.3174,1.3165,1.3159,1.3118,1.3095,1.309,1.3067,1.3061,1.3057,1.3036,1.3021,1.2977,1.2977,1.2971,1.297,1.2926,1.2926,1.2927,1.2952,1.2954,1.2957,0,0,0,0,0,0,1.3206,1.317,1.3159,1.3143,1.3123,1.309,1.3084,1.307,1.3051,1.3049,1.3021,1.3014,1.2998,1.2982,1.2983,1.296,1.295,1.2949,1.2971,1.2973,1.2975,1.298,1.2961,0,0,0,0,0,1.3211,1.3196,1.3164,1.3153,1.3143,1.3116,1.3105,1.3089,1.3067,1.3057,1.3035,1.3014,1.2995,1.2983,1.2964,1.295,1.2943,1.2947,1.2949,1.2951,1.295,1.2943,1.2945,1.2928,1.2928,1.2928,0,0,1.3219,1.3197,1.3189,1.3158,1.314,1.3125,1.3108,1.3093,1.3081,1.3055,1.3037,1.302,1.2994,1.2978,1.297,1.2964,1.2953,1.2951,1.2953,1.2951,1.2944,1.2945,1.2947,1.2929,1.2929,1.2928,0,0,1.3226,1.3208,1.3197,1.318,1.3154,1.3136,1.3134,1.3104,1.3092,1.3073,1.3054,1.304,1.3008,1.2991,1.2978,1.2981,1.2966,1.2975,1.2986,1.2979,1.2981,1.2982,1.2984,1.2984,1.2975,1.2975,1.2975,0,1.3239,1.3216,1.3193,1.3179,1.3166,1.3143,1.3132,1.3117,1.3086,1.3078,1.3072,1.3033,1.3013,1.2994,1.2995,1.2985,1.2982,1.2979,1.2982,1.2983,1.2984,1.2985,1.2986,1.2976,1.2976,1.2976,1.2976,0,1.3234,1.3218,1.3212,1.3185,1.3171,1.3159,1.3134,1.3124,1.311,1.3093,1.3075,1.3051,1.3028,1.3022,1.3007,1.3001,1.2998,1.2988,1.2977,1.2987,1.2988,1.2988,1.2978,1.2978,1.2977,1.2977,0,0,1.3254,1.3216,1.3214,1.3202,1.3173,1.316,1.3147,1.3125,1.3117,1.3097,1.3086,1.3061,1.3051,1.3037,1.302,1.3015,1.302,1.3005,1.3004,1.3009,1.3012,1.3021,1.3022,1.301,1.301,1.301,1.3015,0,1.3257,1.3234,1.3214,1.3197,1.3183,1.3162,1.3151,1.3132,1.3116,1.3102,1.3084,1.3067,1.3056,1.3047,1.304,1.3021,1.302,1.302,1.3,1.2999,1.3007,1.3022,1.303,1.3036,1.3015,1.3015,1.3015,0,1.3257,1.324,1.3223,1.3196,1.319,1.318,1.316,1.3146,1.3125,1.3113,1.3099,1.3082,1.3068,1.3059,1.304,1.304,1.3031,1.302,1.302,1.3017,1.3008,1.302,1.3037,1.3038,1.3015,1.3015,1.3015,0,1.3275,1.3247,1.3233,1.3223,1.3192,1.3187,1.3173,1.3152,1.314,1.3122,1.3115,1.3095,1.3084,1.3069,1.3048,1.3044,1.3031,1.302,1.3022,1.3022,1.3019,1.302,1.3035,1.3013,1.3013,1.3013,1.3013,0,1.3281,1.3271,1.3241,1.3233,1.3222,1.3199,1.3189,1.3174,1.3155,1.3144,1.3124,1.3113,1.3086,1.3072,1.3056,1.3043,1.3038,1.3028,1.3024,1.303,1.3032,1.3024,1.3023,1.3014,1.3013,1.3013,1.3013,0,1.3298,1.3278,1.3262,1.3235,1.3228,1.3221,1.3197,1.3189,1.3173,1.3158,1.3154,1.3128,1.3111,1.3089,1.3065,1.3054,1.3043,1.3036,1.305,1.3048,1.3051,1.3051,1.3061,1.3062,1.304,1.304,1.304,0,1.3303,1.3295,1.3268,1.3259,1.3247,1.3233,1.3222,1.32,1.319,1.3166,1.316,1.3142,1.3127,1.3101,1.308,1.3062,1.3054,1.306,1.3051,1.3058,1.3055,1.3056,1.3056,1.3061,1.3062,1.3062,1.3062,0,1.3314,1.3305,1.329,1.3272,1.326,1.3245,1.3229,1.3223,1.3198,1.3187,1.317,1.3158,1.3135,1.3117,1.3097,1.3083,1.3069,1.3065,1.3065,1.3071,1.308,1.3076,1.3056,1.3065,1.3065,1.3064,1.3064,1.3064,1.3325,1.3318,1.3298,1.3283,1.3269,1.3255,1.3246,1.323,1.3216,1.3196,1.3184,1.3168,1.3148,1.3119,1.3106,1.3093,1.3088,1.3086,1.3086,1.3086,1.3089,1.3082,1.3089,1.3089,1.3089,1.3089,1.3089,0,1.3335,1.3322,1.3309,1.3288,1.3276,1.3265,1.3247,1.3238,1.3225,1.3208,1.3194,1.3175,1.3159,1.3138,1.312,1.3114,1.3107,1.311,1.311,1.3107,1.3095,1.3097,1.3116,1.3116,1.3116,1.3116,1.3116,1.3116,1.3339,1.3327,1.3316,1.3298,1.3284,1.3269,1.326,1.3248,1.3234,1.3215,1.3202,1.3189,1.317,1.3151,1.3136,1.313,1.3125,1.313,1.3122,1.3111,1.3108,1.3106,1.3108,1.3129,1.3129,1.3136,1.3136,1.3136]}]]